Milwaukee Timmerman, WI

6:05 PM CDT on June 27, 2017 (GMT -0500)
Timmerman

Weather History for KMWC - November, 2012

Change the Weather History Date:

Tuesday, November 27, 2012

  Actual Average Record
Temperature  
Mean Temperature 22 °F -  
Max Temperature 30 °F 41 °F 64 °F (1998)
Min Temperature 14 °F 28 °F 4 °F (1977)
Degree Days  
Heating Degree Days 43    
Moisture  
Dew Point 11 °F    
Average Humidity 58    
Maximum Humidity 79    
Minimum Humidity 40    
Precipitation  
Precipitation 0.00 in - - ()
Sea Level Pressure  
Sea Level Pressure 30.28 in    
Wind  
Wind Speed 7 mph (WSW)    
Max Wind Speed 13 mph    
Max Gust Speed 18 mph    
Visibility 10 miles    
Events      
Averages and records for this station are not official NWS values.
T = Trace of Precipitation, MM = Missing Value Source: NWS Daily Summary

Daily Weather History Graph

Daily Weather History Graph

Search for Another Location

Airport or City:

Trip Planner

Search our weather history database for the weather conditions in past years. The results will help you decide how hot, cold, wet, or windy it might be!

Date:

Astronomy

Nov. 27, 2012 Rise Set
Actual Time 7:00 AM CST 4:19 PM CST
Civil Twilight 6:28 AM CST 4:51 PM CST
Nautical Twilight 5:53 AM CST 5:26 PM CST
Astronomical Twilight 5:19 AM CST 6:00 PM CST
Moon 3:51 PM CST 6:04 AM CST
Length of Visible Light 10h 22m
Length of Day
9h 19m
Waxing Gibbous, 99% of the Moon is Illuminated
Nov 27
Waxing Gibbous
Nov 28
Full
Dec 6
Last Quarter
Dec 13
New
Dec 19
First Quarter

Hourly Weather History & Observations

Time (CST) Temp. Windchill Dew Point Humidity Pressure Visibility Wind Dir Wind Speed Gust Speed Precip Events Conditions
12:15 AM 17.6 °F 12.3 °F 8.6 °F 68% 30.36 in 10.0 mi West 3.5 mph - N/A   Clear
12:35 AM 17.6 °F 10.7 °F 8.6 °F 68% 30.36 in 10.0 mi WNW 4.6 mph - N/A   Clear
12:55 AM 15.8 °F 10.2 °F 8.6 °F 73% 30.36 in 10.0 mi WNW 3.5 mph - N/A   Clear
4:15 AM 14.0 °F 5.1 °F 8.6 °F 79% 30.36 in 10.0 mi West 5.8 mph - N/A   Clear
4:35 AM 14.0 °F 6.5 °F 8.6 °F 79% 30.36 in 10.0 mi West 4.6 mph - N/A   Clear
4:55 AM 14.0 °F 8.2 °F 8.6 °F 79% 30.35 in 10.0 mi West 3.5 mph - N/A   Clear
5:15 AM 14.0 °F 8.2 °F 8.6 °F 79% 30.36 in 10.0 mi West 3.5 mph - N/A   Clear
5:35 AM 14.0 °F 6.5 °F 8.6 °F 79% 30.36 in 10.0 mi West 4.6 mph - N/A   Clear
7:45 AM 15.8 °F 8.6 °F 8.6 °F 73% 30.36 in 10.0 mi West 4.6 mph - N/A   Clear
8:45 AM 19.4 °F 10.4 °F 10.4 °F 68% 30.37 in 10.0 mi West 6.9 mph - N/A   Clear
9:45 AM 24.8 °F 16.1 °F 10.4 °F 54% 30.38 in 10.0 mi WSW 8.1 mph - N/A   Clear
10:45 AM 26.6 °F 16.8 °F 8.6 °F 47% 30.37 in 10.0 mi West 10.4 mph - N/A   Clear
11:45 AM 28.4 °F 21.2 °F 8.6 °F 43% 30.33 in 10.0 mi SW 6.9 mph - N/A   Clear
1:45 PM 28.4 °F 19.7 °F 8.6 °F 43% 30.27 in 10.0 mi SW 9.2 mph - N/A   Clear
2:45 PM 30.2 °F 21.9 °F 8.6 °F 40% 30.25 in 10.0 mi SW 9.2 mph - N/A   Clear
4:45 PM 26.6 °F 19.1 °F 10.4 °F 51% 30.23 in 10.0 mi SW 6.9 mph - N/A   Clear
5:45 PM 26.6 °F 19.1 °F 10.4 °F 51% 30.22 in 10.0 mi SSW 6.9 mph - N/A   Clear
6:45 PM 28.4 °F 19.7 °F 12.2 °F 51% 30.21 in 10.0 mi SW 9.2 mph - N/A   Overcast
7:45 PM 28.4 °F 18.5 °F 10.4 °F 47% 30.21 in 10.0 mi SW 11.5 mph 18.4 mph N/A   Overcast
8:15 PM 28.4 °F 18.0 °F 12.2 °F 51% 30.21 in 10.0 mi SW 12.7 mph 17.3 mph N/A   Overcast
8:35 PM 28.4 °F 19.7 °F 12.2 °F 51% 30.20 in 10.0 mi SW 9.2 mph - N/A   Overcast
8:45 PM 28.4 °F 18.5 °F 12.2 °F 51% 30.20 in 10.0 mi SW 11.5 mph 17.3 mph N/A   Overcast
8:55 PM 28.4 °F 19.1 °F 12.2 °F 51% 30.21 in 10.0 mi SW 10.4 mph - N/A   Overcast
9:15 PM 28.4 °F 19.1 °F 12.2 °F 51% 30.21 in 10.0 mi WSW 10.4 mph - N/A   Mostly Cloudy
9:35 PM 28.4 °F 19.1 °F 12.2 °F 51% 30.21 in 10.0 mi WSW 10.4 mph - N/A   Overcast
9:55 PM 28.4 °F 18.5 °F 14.0 °F 55% 30.21 in 10.0 mi WSW 11.5 mph - N/A   Overcast
10:15 PM 30.2 °F 20.8 °F 14.0 °F 51% 30.20 in 10.0 mi SW 11.5 mph - N/A   Overcast
10:55 PM 30.2 °F 20.8 °F 14.0 °F 51% 30.21 in 10.0 mi WSW 11.5 mph - N/A   Overcast
11:15 PM 30.2 °F 21.3 °F 14.0 °F 51% 30.21 in 10.0 mi WSW 10.4 mph 16.1 mph N/A   Overcast
11:55 PM 30.2 °F 21.3 °F 14.0 °F 51% 30.20 in 10.0 mi WSW 10.4 mph - N/A   Overcast